LAGEOS 2

Last updated on Fri Oct 11 2024 00:03:25 GMT+0000 (Coordinated Universal Time)

1 22195U 92070B 24284.23687469 -.00000009 00000+0 00000+0 0 9990 2 22195 52.6594 295.3033 0137509 277.9560 70.0588 6.47293809755607
UTC large
Height (km)
Speed (km/s)
/
Latitude / Longitude
Inclination (degrees)
Orbital Period (minutes)
Azimuth
Elevation
Range (km)
Doppler Factor

Next 0 passes for location: London (51.5072 / 0.1276)

Sorry there are no passes over London.